Location: Haulchin
(50.3172°N, 3.4360°E)
Time: 03:23:23
(UTC+00:00)

Cosmos 2251 Rocket - Pass Details

Date: 23 May 2024
Orbit: 762 x 790 km, 74.0° (Epoch: 17 June)

Event Time Altitude Azimuth Distance (km) Brightness Sun altitude
Exits shadow 00:44:26 27° 227° (SW) 1,453 4.5 -17.8°
Maximum altitude 00:47:14 60° 298° (WNW) 879 3.8 -17.6°
Drops below altitude 10° 00:52:29 10° 19° (NNE) 2,332 7.3 -17.4°
Sets 00:54:55 0° 23° (NNE) 3,268 8.5 -17.3°
